Time,TemperatureF,DewpointF,PressureIn,WindDirection,WindDirectionDegrees,WindSpeedMPH,WindSpeedGustMPH,Humidity,HourlyPrecipIn,Conditions,Clouds,dailyrainin,SoftwareType,DateUTC
2013-01-31 00:00:00,37.5,35.7,30.21,WNW,301,0.0,0.0,93,0.00,,,0.18,VWS V14.01,2013-01-31 08:00:00,
2013-01-31 00:05:00,37.5,35.7,30.20,WNW,301,0.0,0.0,93,0.00,,OVC009,0.00,VWS V14.01,2013-01-31 08:05:00,
2013-01-31 00:10:00,37.3,35.5,30.20,WNW,301,0.0,0.0,93,0.00,,OVC009,0.00,VWS V14.01,2013-01-31 08:10:00,
2013-01-31 00:15:00,37.3,35.5,30.20,WNW,301,0.0,0.0,93,0.00,,OVC009,0.00,VWS V14.01,2013-01-31 08:15:00,
2013-01-31 00:20:00,37.2,35.4,30.21,WNW,301,0.0,0.0,93,0.00,,OVC009,0.00,VWS V14.01,2013-01-31 08:20:00,
2013-01-31 00:26:00,37.2,35.4,30.21,WNW,301,0.0,0.0,93,0.00,,OVC009,0.00,VWS V14.01,2013-01-31 08:26:00,
2013-01-31 00:31:00,37.0,35.2,30.21,WNW,301,0.0,0.0,93,0.00,,OVC009,0.00,VWS V14.01,2013-01-31 08:31:00,
2013-01-31 00:36:00,37.0,35.2,30.21,WNW,301,0.0,0.0,93,0.00,,OVC009,0.00,VWS V14.01,2013-01-31 08:36:00,
2013-01-31 00:41:00,37.0,35.2,30.21,WNW,301,0.0,0.0,93,0.00,,OVC009,0.00,VWS V14.01,2013-01-31 08:41:00,
2013-01-31 00:46:00,37.2,35.4,30.21,WNW,301,0.0,0.0,93,0.00,,OVC009,0.00,VWS V14.01,2013-01-31 08:46:00,
2013-01-31 00:51:00,37.0,35.2,30.21,WNW,301,0.0,0.0,93,0.00,,OVC009,0.00,VWS V14.01,2013-01-31 08:51:00,
2013-01-31 00:56:00,37.0,35.2,30.21,WNW,301,0.0,0.0,93,0.00,,OVC009,0.00,VWS V14.01,2013-01-31 08:56:00,
2013-01-31 01:01:00,37.0,35.2,30.22,WNW,301,0.0,0.0,93,0.00,,OVC085,0.00,VWS V14.01,2013-01-31 09:01:00,
2013-01-31 01:07:00,36.9,35.1,30.22,WNW,301,0.0,0.0,93,0.00,,OVC085,0.00,VWS V14.01,2013-01-31 09:07:00,
2013-01-31 01:12:00,36.9,35.1,30.22,WNW,301,0.0,0.0,93,0.00,,OVC085,0.00,VWS V14.01,2013-01-31 09:12:00,
2013-01-31 01:17:00,36.9,35.1,30.21,WNW,301,0.0,0.0,93,0.00,,OVC085,0.00,VWS V14.01,2013-01-31 09:17:00,
2013-01-31 01:22:00,36.9,35.1,30.21,WNW,301,0.0,2.0,93,0.00,,OVC085,0.00,VWS V14.01,2013-01-31 09:22:00,
2013-01-31 01:27:00,36.9,35.1,30.21,West,264,0.0,2.0,93,0.00,,OVC085,0.00,VWS V14.01,2013-01-31 09:27:00,
2013-01-31 01:32:00,37.2,35.6,30.21,West,264,0.0,0.0,94,0.00,,OVC085,0.00,VWS V14.01,2013-01-31 09:32:00,
2013-01-31 01:37:00,37.2,35.6,30.21,West,264,2.0,2.0,94,0.00,,OVC085,0.00,VWS V14.01,2013-01-31 09:37:00,
2013-01-31 01:42:00,37.3,35.7,30.21,West,264,1.0,1.0,94,0.00,,OVC085,0.00,VWS V14.01,2013-01-31 09:42:00,
2013-01-31 01:47:00,37.3,35.7,30.21,West,264,1.0,1.0,94,0.00,,OVC085,0.00,VWS V14.01,2013-01-31 09:47:00,
2013-01-31 01:52:00,37.3,35.7,30.21,West,264,0.0,0.0,94,0.00,,OVC085,0.00,VWS V14.01,2013-01-31 09:52:00,
2013-01-31 01:57:00,37.3,35.7,30.21,West,264,0.0,0.0,94,0.00,,OVC085,0.00,VWS V14.01,2013-01-31 09:57:00,
2013-01-31 02:02:00,37.3,35.5,30.22,West,264,0.0,0.0,93,0.00,,OVC090,0.00,VWS V14.01,2013-01-31 10:02:00,
2013-01-31 02:08:00,37.3,35.5,30.22,West,264,0.0,0.0,93,0.00,,OVC090,0.00,VWS V14.01,2013-01-31 10:08:00,
2013-01-31 02:13:00,37.2,35.4,30.22,West,264,0.0,0.0,93,0.00,,OVC090,0.00,VWS V14.01,2013-01-31 10:13:00,
2013-01-31 02:18:00,37.2,35.4,30.22,West,264,0.0,0.0,93,0.00,,OVC090,0.00,VWS V14.01,2013-01-31 10:18:00,
2013-01-31 02:23:00,37.3,35.5,30.22,West,264,1.0,1.0,93,0.00,,OVC090,0.00,VWS V14.01,2013-01-31 10:23:00,
2013-01-31 02:28:00,37.3,35.5,30.22,West,264,2.0,2.0,93,0.00,,OVC090,0.00,VWS V14.01,2013-01-31 10:28:00,
2013-01-31 02:33:00,37.3,35.5,30.22,West,264,0.0,0.0,93,0.00,,OVC090,0.00,VWS V14.01,2013-01-31 10:33:00,
2013-01-31 02:38:00,37.3,35.5,30.22,West,264,0.0,1.0,93,0.00,,OVC090,0.00,VWS V14.01,2013-01-31 10:38:00,
2013-01-31 02:43:00,37.5,35.7,30.22,West,264,3.0,3.0,93,0.00,,OVC090,0.00,VWS V14.01,2013-01-31 10:43:00,
2013-01-31 02:48:00,37.6,35.8,30.22,West,264,1.0,1.0,93,0.00,,OVC090,0.00,VWS V14.01,2013-01-31 10:48:00,
2013-01-31 02:53:00,37.6,35.8,30.22,West,264,0.0,2.0,93,0.00,,OVC090,0.00,VWS V14.01,2013-01-31 10:53:00,
2013-01-31 02:58:00,37.6,35.8,30.22,West,264,0.0,0.0,93,0.00,,OVC090,0.00,VWS V14.01,2013-01-31 10:58:00,
2013-01-31 03:04:00,37.8,36.0,30.22,West,264,0.0,0.0,93,0.00,,OVC007,0.00,VWS V14.01,2013-01-31 11:04:00,
2013-01-31 03:09:00,37.8,36.0,30.22,West,264,0.0,0.0,93,0.00,,OVC007,0.00,VWS V14.01,2013-01-31 11:09:00,
2013-01-31 03:14:00,37.8,36.0,30.22,West,264,1.0,1.0,93,0.00,,OVC007,0.00,VWS V14.01,2013-01-31 11:14:00,
2013-01-31 03:19:00,37.8,36.0,30.22,West,264,0.0,0.0,93,0.00,,OVC007,0.00,VWS V14.01,2013-01-31 11:19:00,
2013-01-31 03:24:00,37.8,36.0,30.22,West,264,0.0,0.0,93,0.00,,OVC007,0.00,VWS V14.01,2013-01-31 11:24:00,
2013-01-31 03:29:00,37.8,36.0,30.22,West,264,0.0,0.0,93,0.00,,OVC007,0.00,VWS V14.01,2013-01-31 11:29:00,
2013-01-31 03:34:00,37.8,36.0,30.22,West,264,0.0,0.0,93,0.00,,OVC007,0.00,VWS V14.01,2013-01-31 11:34:00,
2013-01-31 03:39:00,37.8,36.0,30.22,West,264,0.0,0.0,93,0.00,,OVC007,0.00,VWS V14.01,2013-01-31 11:39:00,
2013-01-31 03:44:00,37.9,36.1,30.22,West,264,0.0,0.0,93,0.00,,OVC007,0.00,VWS V14.01,2013-01-31 11:44:00,
2013-01-31 03:49:00,37.9,36.1,30.22,West,264,0.0,0.0,93,0.00,,OVC007,0.00,VWS V14.01,2013-01-31 11:49:00,
2013-01-31 03:55:00,37.9,36.1,30.22,West,264,0.0,0.0,93,0.00,,OVC007,0.00,VWS V14.01,2013-01-31 11:55:00,
2013-01-31 04:00:00,37.9,36.1,30.22,West,264,1.0,1.0,93,0.00,,OVC007,0.00,VWS V14.01,2013-01-31 12:00:00,
2013-01-31 04:05:00,37.8,36.0,30.22,West,264,0.0,0.0,93,0.00,,OVC009,0.00,VWS V14.01,2013-01-31 12:05:00,
2013-01-31 04:10:00,37.8,36.0,30.22,West,264,0.0,0.0,93,0.00,,OVC009,0.00,VWS V14.01,2013-01-31 12:10:00,
2013-01-31 04:15:00,37.8,36.0,30.22,West,264,0.0,1.0,93,0.00,,OVC009,0.00,VWS V14.01,2013-01-31 12:15:00,
2013-01-31 04:20:00,37.9,36.1,30.22,West,264,0.0,1.0,93,0.00,,OVC009,0.00,VWS V14.01,2013-01-31 12:20:00,
2013-01-31 04:25:00,37.9,36.1,30.22,West,264,0.0,0.0,93,0.00,,OVC009,0.00,VWS V14.01,2013-01-31 12:25:00,
2013-01-31 04:30:00,37.9,36.1,30.22,West,264,0.0,0.0,93,0.00,,OVC009,0.00,VWS V14.01,2013-01-31 12:30:00,
2013-01-31 04:35:00,37.8,36.0,30.23,West,264,0.0,0.0,93,0.00,,OVC009,0.00,VWS V14.01,2013-01-31 12:35:00,
2013-01-31 04:40:00,37.8,36.0,30.23,West,264,0.0,0.0,93,0.00,,OVC009,0.00,VWS V14.01,2013-01-31 12:40:00,
2013-01-31 04:45:00,37.6,35.8,30.23,West,264,0.0,0.0,93,0.00,,OVC009,0.00,VWS V14.01,2013-01-31 12:45:00,
2013-01-31 04:50:00,37.5,35.7,30.22,West,264,0.0,0.0,93,0.00,,OVC009,0.00,VWS V14.01,2013-01-31 12:50:00,
2013-01-31 04:55:00,37.3,35.5,30.22,West,264,0.0,0.0,93,0.00,,OVC009,0.00,VWS V14.01,2013-01-31 12:55:00,
2013-01-31 05:00:00,37.3,35.5,30.22,West,264,0.0,0.0,93,0.00,,OVC009,0.00,VWS V14.01,2013-01-31 13:00:00,
2013-01-31 05:05:00,37.0,35.2,30.23,West,264,0.0,0.0,93,0.00,,OVC007,0.00,VWS V14.01,2013-01-31 13:05:00,
2013-01-31 05:10:00,37.0,35.2,30.23,West,264,0.0,0.0,93,0.00,,OVC007,0.00,VWS V14.01,2013-01-31 13:10:00,
2013-01-31 05:15:00,37.0,35.2,30.23,West,264,0.0,0.0,93,0.00,,OVC007,0.00,VWS V14.01,2013-01-31 13:15:00,
2013-01-31 05:21:00,36.9,35.1,30.23,West,264,0.0,0.0,93,0.00,,OVC007,0.00,VWS V14.01,2013-01-31 13:21:00,
2013-01-31 05:26:00,36.9,35.1,30.23,West,264,0.0,0.0,93,0.00,,OVC007,0.00,VWS V14.01,2013-01-31 13:26:00,
2013-01-31 05:31:00,36.8,35.0,30.23,West,264,0.0,0.0,93,0.00,,OVC007,0.00,VWS V14.01,2013-01-31 13:31:00,
2013-01-31 05:36:00,36.6,34.8,30.23,West,264,0.0,0.0,93,0.00,,OVC007,0.00,VWS V14.01,2013-01-31 13:36:00,
2013-01-31 05:41:00,36.6,34.8,30.23,West,264,0.0,0.0,93,0.00,,OVC007,0.00,VWS V14.01,2013-01-31 13:41:00,
2013-01-31 05:46:00,36.5,34.7,30.23,West,264,0.0,0.0,93,0.00,,OVC007,0.00,VWS V14.01,2013-01-31 13:46:00,
2013-01-31 05:51:00,36.5,34.7,30.22,West,264,0.0,0.0,93,0.00,,OVC007,0.00,VWS V14.01,2013-01-31 13:51:00,
2013-01-31 05:56:00,36.5,34.7,30.22,West,264,0.0,0.0,93,0.00,,OVC007,0.00,VWS V14.01,2013-01-31 13:56:00,
2013-01-31 06:01:00,36.5,34.7,30.22,West,264,0.0,0.0,93,0.00,,OVC007,0.00,VWS V14.01,2013-01-31 14:01:00,
2013-01-31 06:06:00,36.5,34.9,30.22,West,264,0.0,0.0,94,0.00,,OVC007,0.00,VWS V14.01,2013-01-31 14:06:00,
2013-01-31 06:11:00,36.5,34.9,30.22,West,264,0.0,0.0,94,0.00,,OVC007,0.00,VWS V14.01,2013-01-31 14:11:00,
2013-01-31 06:16:00,36.5,34.9,30.22,West,264,0.0,0.0,94,0.00,,OVC007,0.00,VWS V14.01,2013-01-31 14:16:00,
2013-01-31 06:21:00,36.5,34.9,30.22,West,264,0.0,0.0,94,0.00,,OVC007,0.00,VWS V14.01,2013-01-31 14:21:00,
2013-01-31 06:27:00,36.5,34.9,30.22,West,264,0.0,0.0,94,0.00,,OVC007,0.00,VWS V14.01,2013-01-31 14:27:00,
2013-01-31 06:32:00,36.5,34.9,30.22,West,264,0.0,0.0,94,0.00,,OVC007,0.00,VWS V14.01,2013-01-31 14:32:00,
2013-01-31 06:37:00,36.5,34.9,30.22,West,264,0.0,0.0,94,0.00,,OVC007,0.00,VWS V14.01,2013-01-31 14:37:00,
2013-01-31 06:42:00,36.5,34.9,30.22,West,264,0.0,0.0,94,0.00,,OVC007,0.00,VWS V14.01,2013-01-31 14:42:00,
2013-01-31 06:47:00,36.3,34.7,30.22,West,264,0.0,0.0,94,0.00,,OVC007,0.00,VWS V14.01,2013-01-31 14:47:00,
2013-01-31 06:52:00,36.3,34.7,30.22,West,264,0.0,0.0,94,0.00,,OVC007,0.00,VWS V14.01,2013-01-31 14:52:00,
2013-01-31 06:57:00,36.3,34.7,30.22,West,264,0.0,0.0,94,0.00,,OVC007,0.00,VWS V14.01,2013-01-31 14:57:00,
2013-01-31 07:02:00,36.0,34.4,30.22,West,264,0.0,0.0,94,0.00,,OVC009,0.00,VWS V14.01,2013-01-31 15:02:00,
2013-01-31 07:07:00,36.0,34.4,30.22,West,264,0.0,0.0,94,0.00,,OVC009,0.00,VWS V14.01,2013-01-31 15:07:00,
2013-01-31 07:12:00,36.0,34.4,30.22,West,264,0.0,0.0,94,0.00,,OVC009,0.00,VWS V14.01,2013-01-31 15:12:00,
2013-01-31 07:17:00,35.9,34.3,30.22,West,264,0.0,0.0,94,0.00,,OVC009,0.00,VWS V14.01,2013-01-31 15:17:00,
2013-01-31 07:23:00,35.7,34.2,30.22,West,264,0.0,0.0,94,0.00,,OVC009,0.00,VWS V14.01,2013-01-31 15:23:00,
2013-01-31 07:28:00,35.7,34.2,30.22,West,264,0.0,0.0,94,0.00,,OVC009,0.00,VWS V14.01,2013-01-31 15:28:00,
2013-01-31 07:33:00,35.7,34.2,30.22,West,264,0.0,0.0,94,0.00,,OVC009,0.00,VWS V14.01,2013-01-31 15:33:00,
2013-01-31 07:38:00,35.7,34.2,30.22,West,264,0.0,0.0,94,0.00,,OVC009,0.00,VWS V14.01,2013-01-31 15:38:00,
2013-01-31 07:43:00,35.7,34.2,30.22,West,264,0.0,0.0,94,0.00,,OVC009,0.00,VWS V14.01,2013-01-31 15:43:00,
2013-01-31 07:48:00,35.7,34.4,30.22,West,264,0.0,0.0,95,0.00,,OVC009,0.00,VWS V14.01,2013-01-31 15:48:00,
2013-01-31 07:53:00,35.7,34.4,30.22,West,264,0.0,0.0,95,0.00,,OVC009,0.00,VWS V14.01,2013-01-31 15:53:00,
2013-01-31 07:58:00,35.7,34.4,30.22,West,264,0.0,0.0,95,0.00,,OVC009,0.00,VWS V14.01,2013-01-31 15:58:00,
2013-01-31 08:03:00,35.6,34.3,30.23,West,264,0.0,0.0,95,0.00,,,0.00,VWS V14.01,2013-01-31 16:03:00,
2013-01-31 08:08:00,35.6,34.3,30.23,West,264,0.0,0.0,95,0.00,,,0.00,VWS V14.01,2013-01-31 16:08:00,
2013-01-31 08:14:00,35.6,34.3,30.23,West,264,0.0,0.0,95,0.00,,,0.00,VWS V14.01,2013-01-31 16:14:00,
2013-01-31 08:19:00,35.6,34.3,30.23,West,264,0.0,0.0,95,0.00,,,0.00,VWS V14.01,2013-01-31 16:19:00,
2013-01-31 08:24:00,35.7,34.4,30.23,West,264,0.0,0.0,95,0.00,,,0.00,VWS V14.01,2013-01-31 16:24:00,
2013-01-31 08:29:00,35.7,34.4,30.23,West,264,0.0,0.0,95,0.00,,,0.00,VWS V14.01,2013-01-31 16:29:00,
2013-01-31 08:34:00,35.9,34.6,30.23,West,264,0.0,0.0,95,0.00,,,0.00,VWS V14.01,2013-01-31 16:34:00,
2013-01-31 08:39:00,36.0,34.7,30.23,West,264,0.0,0.0,95,0.00,,,0.00,VWS V14.01,2013-01-31 16:39:00,
2013-01-31 08:44:00,36.0,34.7,30.23,West,264,0.0,0.0,95,0.00,,,0.00,VWS V14.01,2013-01-31 16:44:00,
2013-01-31 08:49:00,36.2,34.9,30.24,West,264,0.0,0.0,95,0.00,,,0.00,VWS V14.01,2013-01-31 16:49:00,
2013-01-31 08:55:00,36.2,34.9,30.24,West,264,0.0,0.0,95,0.00,,,0.00,VWS V14.01,2013-01-31 16:55:00,
2013-01-31 09:00:00,36.2,34.9,30.24,West,264,0.0,0.0,95,0.00,,,0.00,VWS V14.01,2013-01-31 17:00:00,
2013-01-31 09:05:00,36.2,34.9,30.23,West,264,0.0,0.0,95,0.00,,,0.00,VWS V14.01,2013-01-31 17:05:00,
2013-01-31 09:10:00,36.3,35.0,30.23,West,264,0.0,0.0,95,0.00,,,0.00,VWS V14.01,2013-01-31 17:10:00,
2013-01-31 09:15:00,36.5,35.2,30.23,West,264,0.0,0.0,95,0.00,,,0.00,VWS V14.01,2013-01-31 17:15:00,
2013-01-31 09:20:00,36.6,35.3,30.23,West,264,0.0,0.0,95,0.00,,,0.00,VWS V14.01,2013-01-31 17:20:00,
2013-01-31 09:25:00,36.6,35.3,30.23,West,264,0.0,0.0,95,0.00,,,0.00,VWS V14.01,2013-01-31 17:25:00,
2013-01-31 09:30:00,36.6,35.3,30.23,West,264,0.0,0.0,95,0.00,,,0.00,VWS V14.01,2013-01-31 17:30:00,
2013-01-31 09:36:00,36.8,35.5,30.23,West,264,0.0,0.0,95,0.00,,,0.00,VWS V14.01,2013-01-31 17:36:00,
2013-01-31 09:41:00,36.9,35.6,30.23,West,264,0.0,0.0,95,0.00,,,0.00,VWS V14.01,2013-01-31 17:41:00,
2013-01-31 09:46:00,36.9,35.3,30.23,West,264,0.0,0.0,94,0.00,,,0.00,VWS V14.01,2013-01-31 17:46:00,
2013-01-31 09:51:00,36.9,35.3,30.23,West,264,0.0,0.0,94,0.00,,,0.00,VWS V14.01,2013-01-31 17:51:00,
2013-01-31 09:56:00,36.9,35.3,30.23,West,264,0.0,0.0,94,0.00,,,0.00,VWS V14.01,2013-01-31 17:56:00,
2013-01-31 10:01:00,36.9,35.3,30.23,West,264,0.0,0.0,94,0.00,,,0.00,VWS V14.01,2013-01-31 18:01:00,
2013-01-31 10:06:00,36.9,35.3,30.23,West,264,0.0,0.0,94,0.00,,OVC007,0.00,VWS V14.01,2013-01-31 18:06:00,
2013-01-31 10:12:00,37.0,35.4,30.23,West,264,0.0,0.0,94,0.00,,OVC007,0.00,VWS V14.01,2013-01-31 18:12:00,
2013-01-31 10:17:00,37.2,35.6,30.24,West,264,0.0,0.0,94,0.00,,OVC007,0.00,VWS V14.01,2013-01-31 18:17:00,
2013-01-31 10:22:00,37.3,35.7,30.24,West,264,0.0,0.0,94,0.00,,OVC007,0.00,VWS V14.01,2013-01-31 18:22:00,
2013-01-31 10:27:00,37.3,35.7,30.24,West,264,0.0,0.0,94,0.00,,OVC007,0.00,VWS V14.01,2013-01-31 18:27:00,
2013-01-31 10:32:00,37.6,35.8,30.24,West,264,0.0,0.0,93,0.00,,OVC007,0.00,VWS V14.01,2013-01-31 18:32:00,
2013-01-31 10:37:00,37.9,36.3,30.24,West,264,0.0,0.0,94,0.00,,OVC007,0.00,VWS V14.01,2013-01-31 18:37:00,
2013-01-31 10:42:00,38.6,37.0,30.24,West,264,0.0,0.0,94,0.00,,OVC007,0.00,VWS V14.01,2013-01-31 18:42:00,
2013-01-31 10:47:00,39.2,37.6,30.24,West,264,0.0,0.0,94,0.00,,OVC007,0.00,VWS V14.01,2013-01-31 18:47:00,
2013-01-31 10:53:00,39.2,37.6,30.24,West,264,0.0,2.0,94,0.00,,OVC007,0.00,VWS V14.01,2013-01-31 18:53:00,
2013-01-31 10:58:00,39.6,38.0,30.24,West,264,0.0,0.0,94,0.00,,OVC007,0.00,VWS V14.01,2013-01-31 18:58:00,
2013-01-31 11:03:00,39.9,38.3,30.24,West,264,0.0,0.0,94,0.00,,OVC007,0.00,VWS V14.01,2013-01-31 19:03:00,
2013-01-31 11:08:00,40.2,38.6,30.24,West,264,0.0,0.0,94,0.00,,OVC007,0.00,VWS V14.01,2013-01-31 19:08:00,
2013-01-31 11:13:00,40.3,38.2,30.24,West,264,1.0,1.0,92,0.00,,OVC007,0.00,VWS V14.01,2013-01-31 19:13:00,
2013-01-31 11:18:00,40.5,38.4,30.24,SSW,206,0.0,0.0,92,0.00,,OVC007,0.00,VWS V14.01,2013-01-31 19:18:00,
2013-01-31 11:23:00,40.8,38.7,30.24,SW,219,1.0,1.0,92,0.00,,OVC007,0.00,VWS V14.01,2013-01-31 19:23:00,
2013-01-31 11:28:00,40.8,38.7,30.24,SW,229,0.0,0.0,92,0.00,,OVC007,0.00,VWS V14.01,2013-01-31 19:28:00,
2013-01-31 11:33:00,41.1,38.7,30.23,SW,232,0.0,0.0,91,0.00,,OVC007,0.00,VWS V14.01,2013-01-31 19:33:00,
2013-01-31 11:38:00,41.2,38.8,30.23,SW,232,0.0,0.0,91,0.00,,OVC007,0.00,VWS V14.01,2013-01-31 19:38:00,
2013-01-31 11:44:00,41.2,38.8,30.23,WSW,244,0.0,0.0,91,0.00,,OVC007,0.00,VWS V14.01,2013-01-31 19:44:00,
2013-01-31 11:49:00,41.1,38.7,30.23,WSW,240,1.0,1.0,91,0.00,,OVC007,0.00,VWS V14.01,2013-01-31 19:49:00,
2013-01-31 11:54:00,40.8,37.8,30.23,SW,219,0.0,0.0,89,0.00,,OVC007,0.00,VWS V14.01,2013-01-31 19:54:00,
2013-01-31 11:59:00,40.8,37.8,30.23,SW,232,0.0,3.0,89,0.00,,OVC007,0.00,VWS V14.01,2013-01-31 19:59:00,
2013-01-31 12:04:00,40.8,37.8,30.22,SSW,206,0.0,0.0,89,0.00,,OVC009,0.00,VWS V14.01,2013-01-31 20:04:00,
2013-01-31 12:09:00,40.9,37.9,30.22,WNW,296,2.0,2.0,89,0.00,,OVC009,0.00,VWS V14.01,2013-01-31 20:09:00,
2013-01-31 12:14:00,40.9,37.9,30.22,West,272,0.0,0.0,89,0.00,,OVC009,0.00,VWS V14.01,2013-01-31 20:14:00,
2013-01-31 12:19:00,40.9,37.9,30.22,SW,229,0.0,1.0,89,0.00,,OVC009,0.00,VWS V14.01,2013-01-31 20:19:00,
2013-01-31 12:24:00,41.1,38.1,30.22,North,0,0.0,0.0,89,0.00,,OVC009,0.00,VWS V14.01,2013-01-31 20:24:00,
2013-01-31 12:29:00,41.3,38.3,30.22,West,264,0.0,0.0,89,0.00,,OVC009,0.00,VWS V14.01,2013-01-31 20:29:00,
2013-01-31 12:34:00,41.5,38.2,30.22,SW,232,0.0,0.0,88,0.00,,OVC009,0.00,VWS V14.01,2013-01-31 20:34:00,
2013-01-31 12:39:00,41.5,38.2,30.22,West,267,0.0,0.0,88,0.00,,OVC009,0.00,VWS V14.01,2013-01-31 20:39:00,
2013-01-31 12:45:00,41.5,38.2,30.22,West,265,1.0,2.0,88,0.00,,OVC009,0.00,VWS V14.01,2013-01-31 20:45:00,
2013-01-31 12:50:00,41.5,37.9,30.21,West,261,0.0,2.0,87,0.00,,OVC009,0.00,VWS V14.01,2013-01-31 20:50:00,
2013-01-31 12:55:00,41.5,37.9,30.21,West,261,2.0,3.0,87,0.00,,OVC009,0.00,VWS V14.01,2013-01-31 20:55:00,
2013-01-31 13:00:00,41.5,37.9,30.21,West,261,0.0,0.0,87,0.00,,OVC009,0.00,VWS V14.01,2013-01-31 21:00:00,
2013-01-31 13:05:00,41.5,37.9,30.22,West,261,0.0,0.0,87,0.00,,OVC011,0.00,VWS V14.01,2013-01-31 21:05:00,
2013-01-31 13:10:00,41.6,38.0,30.22,West,261,0.0,0.0,87,0.00,,OVC011,0.00,VWS V14.01,2013-01-31 21:10:00,
2013-01-31 13:15:00,41.9,38.3,30.22,West,261,0.0,0.0,87,0.00,,OVC011,0.00,VWS V14.01,2013-01-31 21:15:00,
2013-01-31 13:20:00,41.9,38.3,30.21,West,261,0.0,0.0,87,0.00,,OVC011,0.00,VWS V14.01,2013-01-31 21:20:00,
2013-01-31 13:25:00,42.2,38.6,30.21,West,261,0.0,0.0,87,0.00,,OVC011,0.00,VWS V14.01,2013-01-31 21:25:00,
2013-01-31 13:30:00,42.2,38.6,30.21,West,261,0.0,0.0,87,0.00,,OVC011,0.00,VWS V14.01,2013-01-31 21:30:00,
2013-01-31 13:35:00,42.2,38.0,30.21,West,261,0.0,0.0,85,0.00,,OVC011,0.00,VWS V14.01,2013-01-31 21:35:00,
2013-01-31 13:40:00,42.2,38.0,30.21,West,261,0.0,0.0,85,0.00,,OVC011,0.00,VWS V14.01,2013-01-31 21:40:00,
2013-01-31 13:46:00,42.5,38.3,30.21,West,261,0.0,0.0,85,0.00,,OVC011,0.00,VWS V14.01,2013-01-31 21:46:00,
2013-01-31 13:51:00,42.6,38.1,30.20,West,261,0.0,1.0,84,0.00,,OVC011,0.00,VWS V14.01,2013-01-31 21:51:00,
2013-01-31 13:56:00,42.8,38.3,30.20,West,261,0.0,0.0,84,0.00,,OVC011,0.00,VWS V14.01,2013-01-31 21:56:00,
2013-01-31 14:01:00,42.8,38.3,30.20,SW,223,3.0,3.0,84,0.00,,OVC011,0.00,VWS V14.01,2013-01-31 22:01:00,
2013-01-31 14:06:00,42.9,38.4,30.20,SW,222,0.0,0.0,84,0.00,,OVC017,0.00,VWS V14.01,2013-01-31 22:06:00,
2013-01-31 14:11:00,42.9,38.1,30.20,SW,233,0.0,0.0,83,0.00,,OVC017,0.00,VWS V14.01,2013-01-31 22:11:00,
2013-01-31 14:16:00,42.9,38.1,30.20,WNW,282,0.0,1.0,83,0.00,,OVC017,0.00,VWS V14.01,2013-01-31 22:16:00,
2013-01-31 14:21:00,42.9,38.1,30.20,SW,234,0.0,1.0,83,0.00,,OVC017,0.00,VWS V14.01,2013-01-31 22:21:00,
2013-01-31 14:26:00,42.9,38.1,30.20,WSW,257,0.0,3.0,83,0.00,,OVC017,0.00,VWS V14.01,2013-01-31 22:26:00,
2013-01-31 14:31:00,42.9,38.1,30.20,WSW,254,0.0,0.0,83,0.00,,OVC017,0.00,VWS V14.01,2013-01-31 22:31:00,
2013-01-31 14:36:00,43.1,38.3,30.20,SW,230,0.0,0.0,83,0.00,,OVC017,0.00,VWS V14.01,2013-01-31 22:36:00,
2013-01-31 14:42:00,43.1,38.3,30.20,SW,232,0.0,0.0,83,0.00,,OVC017,0.00,VWS V14.01,2013-01-31 22:42:00,
2013-01-31 14:47:00,42.9,38.4,30.20,SW,232,0.0,0.0,84,0.00,,OVC017,0.00,VWS V14.01,2013-01-31 22:47:00,
2013-01-31 14:52:00,42.9,38.4,30.20,SW,232,0.0,0.0,84,0.00,,OVC017,0.00,VWS V14.01,2013-01-31 22:52:00,
2013-01-31 14:57:00,42.9,38.4,30.20,SW,232,0.0,0.0,84,0.00,,OVC017,0.00,VWS V14.01,2013-01-31 22:57:00,
2013-01-31 15:02:00,42.9,38.4,30.20,SW,232,0.0,0.0,84,0.00,,OVC017,0.00,VWS V14.01,2013-01-31 23:02:00,
2013-01-31 15:07:00,42.9,38.4,30.20,SW,232,0.0,0.0,84,0.00,,OVC017,0.00,VWS V14.01,2013-01-31 23:07:00,
2013-01-31 15:12:00,42.9,38.4,30.20,SW,232,0.0,0.0,84,0.00,,OVC017,0.00,VWS V14.01,2013-01-31 23:12:00,
2013-01-31 15:17:00,42.8,38.3,30.20,SW,232,0.0,0.0,84,0.00,,OVC017,0.00,VWS V14.01,2013-01-31 23:17:00,
2013-01-31 15:22:00,42.8,38.3,30.20,SW,232,0.0,0.0,84,0.00,,OVC017,0.00,VWS V14.01,2013-01-31 23:22:00,
2013-01-31 15:27:00,42.6,38.1,30.20,SW,232,0.0,0.0,84,0.00,,OVC017,0.00,VWS V14.01,2013-01-31 23:27:00,
2013-01-31 15:33:00,42.6,38.1,30.20,SW,232,0.0,0.0,84,0.00,,OVC017,0.00,VWS V14.01,2013-01-31 23:33:00,
2013-01-31 15:38:00,42.6,38.1,30.20,SW,232,0.0,0.0,84,0.00,,OVC017,0.00,VWS V14.01,2013-01-31 23:38:00,
2013-01-31 15:43:00,42.5,38.0,30.20,SW,232,0.0,0.0,84,0.00,,OVC017,0.00,VWS V14.01,2013-01-31 23:43:00,
2013-01-31 15:48:00,42.5,38.3,30.19,SW,232,0.0,0.0,85,0.00,,OVC017,0.00,VWS V14.01,2013-01-31 23:48:00,
2013-01-31 15:53:00,42.3,38.1,30.19,SW,232,0.0,0.0,85,0.00,,OVC017,0.00,VWS V14.01,2013-01-31 23:53:00,
2013-01-31 15:58:00,42.3,38.1,30.19,SW,232,0.0,0.0,85,0.00,,OVC017,0.00,VWS V14.01,2013-01-31 23:58:00,
2013-01-31 16:03:00,42.2,38.0,30.20,SW,232,0.0,0.0,85,0.00,,OVC070,0.00,VWS V14.01,2013-02-01 00:03:00,
2013-01-31 16:08:00,42.2,38.0,30.20,SW,232,0.0,0.0,85,0.00,,OVC070,0.00,VWS V14.01,2013-02-01 00:08:00,
2013-01-31 16:13:00,42.2,38.0,30.20,SW,232,0.0,0.0,85,0.00,,OVC070,0.00,VWS V14.01,2013-02-01 00:13:00,
2013-01-31 16:18:00,41.9,37.7,30.19,SW,232,0.0,0.0,85,0.00,,OVC070,0.00,VWS V14.01,2013-02-01 00:18:00,
2013-01-31 16:24:00,41.8,37.6,30.19,SW,232,0.0,0.0,85,0.00,,OVC070,0.00,VWS V14.01,2013-02-01 00:24:00,
2013-01-31 16:29:00,41.6,38.0,30.19,SW,232,0.0,0.0,87,0.00,,OVC070,0.00,VWS V14.01,2013-02-01 00:29:00,
2013-01-31 16:34:00,41.6,38.0,30.19,SW,232,0.0,0.0,87,0.00,,OVC070,0.00,VWS V14.01,2013-02-01 00:34:00,
2013-01-31 16:39:00,41.5,38.2,30.19,SW,232,0.0,0.0,88,0.00,,OVC070,0.00,VWS V14.01,2013-02-01 00:39:00,
2013-01-31 16:44:00,41.5,38.2,30.19,SW,232,0.0,0.0,88,0.00,,OVC070,0.00,VWS V14.01,2013-02-01 00:44:00,
2013-01-31 16:49:00,41.1,37.8,30.19,SW,232,0.0,0.0,88,0.01,,OVC070,0.01,VWS V14.01,2013-02-01 00:49:00,
2013-01-31 16:55:00,40.9,37.6,30.19,SW,232,0.0,0.0,88,0.01,,OVC070,0.01,VWS V14.01,2013-02-01 00:55:00,
2013-01-31 17:00:00,40.8,37.5,30.19,SW,232,0.0,0.0,88,0.01,,OVC070,0.01,VWS V14.01,2013-02-01 01:00:00,
2013-01-31 17:05:00,40.6,37.3,30.19,SW,232,0.0,0.0,88,0.01,,-RA,0.01,VWS V14.01,2013-02-01 01:05:00,
2013-01-31 17:10:00,40.5,37.5,30.19,SW,232,0.0,0.0,89,0.02,,-RA,0.02,VWS V14.01,2013-02-01 01:10:00,
2013-01-31 17:15:00,40.5,37.8,30.19,SW,232,0.0,0.0,90,0.02,,-RA,0.02,VWS V14.01,2013-02-01 01:15:00,
2013-01-31 17:20:00,40.2,37.5,30.18,SW,232,0.0,0.0,90,0.02,,-RA,0.02,VWS V14.01,2013-02-01 01:20:00,
2013-01-31 17:25:00,40.1,37.4,30.18,SW,232,0.0,0.0,90,0.02,,-RA,0.02,VWS V14.01,2013-02-01 01:25:00,
2013-01-31 17:30:00,40.1,37.4,30.18,SW,232,0.0,0.0,90,0.02,,-RA,0.02,VWS V14.01,2013-02-01 01:30:00,
2013-01-31 17:35:00,39.9,37.2,30.18,SW,232,0.0,0.0,90,0.02,,-RA,0.02,VWS V14.01,2013-02-01 01:35:00,
2013-01-31 17:40:00,39.9,37.5,30.18,SW,232,0.0,0.0,91,0.02,,-RA,0.02,VWS V14.01,2013-02-01 01:40:00,
2013-01-31 17:45:00,39.6,37.2,30.18,SW,232,0.0,0.0,91,0.02,,-RA,0.02,VWS V14.01,2013-02-01 01:45:00,
2013-01-31 17:51:00,39.5,37.1,30.18,SW,232,0.0,0.0,91,0.01,,-RA,0.02,VWS V14.01,2013-02-01 01:51:00,
2013-01-31 17:56:00,39.5,37.1,30.18,SW,232,0.0,0.0,91,0.01,,-RA,0.02,VWS V14.01,2013-02-01 01:56:00,
2013-01-31 18:01:00,39.2,36.8,30.18,SW,232,0.0,0.0,91,0.01,,OVC043,0.02,VWS V14.01,2013-02-01 02:01:00,
2013-01-31 18:06:00,38.9,36.5,30.18,SW,232,0.0,0.0,91,0.01,,OVC043,0.02,VWS V14.01,2013-02-01 02:06:00,
2013-01-31 18:11:00,38.9,36.5,30.18,SW,232,0.0,0.0,91,0.00,,OVC043,0.02,VWS V14.01,2013-02-01 02:11:00,
2013-01-31 18:16:00,38.6,36.5,30.18,SW,232,0.0,0.0,92,0.00,,OVC043,0.02,VWS V14.01,2013-02-01 02:16:00,
2013-01-31 18:21:00,38.6,36.5,30.17,SW,232,0.0,0.0,92,0.00,,OVC043,0.02,VWS V14.01,2013-02-01 02:21:00,
2013-01-31 18:26:00,38.5,36.4,30.17,SW,232,0.0,0.0,92,0.00,,OVC043,0.02,VWS V14.01,2013-02-01 02:26:00,
2013-01-31 18:32:00,38.5,36.4,30.17,SW,232,0.0,0.0,92,0.00,,OVC043,0.02,VWS V14.01,2013-02-01 02:32:00,
2013-01-31 18:37:00,38.3,36.2,30.17,SW,232,0.0,0.0,92,0.00,,OVC043,0.02,VWS V14.01,2013-02-01 02:37:00,
2013-01-31 18:42:00,38.5,36.4,30.17,SW,232,0.0,0.0,92,0.00,,OVC043,0.02,VWS V14.01,2013-02-01 02:42:00,
2013-01-31 18:47:00,38.6,36.5,30.18,SW,232,0.0,0.0,92,0.01,,OVC043,0.03,VWS V14.01,2013-02-01 02:47:00,
2013-01-31 18:52:00,38.8,37.0,30.18,SW,232,0.0,0.0,93,0.01,,OVC043,0.03,VWS V14.01,2013-02-01 02:52:00,
2013-01-31 18:57:00,38.9,37.0,30.18,SW,232,0.0,0.0,93,0.01,,OVC043,0.03,VWS V14.01,2013-02-01 02:57:00,
2013-01-31 19:02:00,38.9,37.0,30.17,SW,232,0.0,0.0,93,0.01,,OVC045,0.03,VWS V14.01,2013-02-01 03:02:00,
2013-01-31 19:07:00,39.0,37.2,30.17,SW,232,0.0,0.0,93,0.02,,OVC045,0.04,VWS V14.01,2013-02-01 03:07:00,
2013-01-31 19:12:00,39.0,37.2,30.17,SW,232,0.0,0.0,93,0.02,,OVC045,0.04,VWS V14.01,2013-02-01 03:12:00,
2013-01-31 19:18:00,38.9,37.0,30.17,SW,232,0.0,0.0,93,0.02,,OVC045,0.04,VWS V14.01,2013-02-01 03:18:00,
2013-01-31 19:23:00,38.9,37.3,30.17,SW,232,0.0,0.0,94,0.02,,OVC045,0.04,VWS V14.01,2013-02-01 03:23:00,
2013-01-31 19:28:00,38.8,37.2,30.17,SW,232,0.0,0.0,94,0.02,,OVC045,0.04,VWS V14.01,2013-02-01 03:28:00,
2013-01-31 19:33:00,38.5,36.9,30.17,SW,232,0.0,0.0,94,0.02,,OVC045,0.04,VWS V14.01,2013-02-01 03:33:00,
2013-01-31 19:38:00,38.5,36.9,30.17,SW,232,0.0,0.0,94,0.02,,OVC045,0.04,VWS V14.01,2013-02-01 03:38:00,
2013-01-31 19:43:00,38.0,36.4,30.17,SW,232,0.0,0.0,94,0.02,,OVC045,0.04,VWS V14.01,2013-02-01 03:43:00,
2013-01-31 19:48:00,37.9,36.3,30.17,SW,232,0.0,0.0,94,0.01,,OVC045,0.04,VWS V14.01,2013-02-01 03:48:00,
2013-01-31 19:53:00,37.9,36.3,30.17,SW,232,0.0,0.0,94,0.01,,OVC045,0.04,VWS V14.01,2013-02-01 03:53:00,
2013-01-31 19:59:00,37.8,36.2,30.17,SW,232,0.0,0.0,94,0.01,,OVC045,0.04,VWS V14.01,2013-02-01 03:59:00,
2013-01-31 20:04:00,37.8,36.2,30.17,SW,232,0.0,0.0,94,0.01,,OVC050,0.04,VWS V14.01,2013-02-01 04:04:00,
2013-01-31 20:09:00,37.8,36.2,30.17,SW,232,0.0,0.0,94,0.00,,OVC050,0.04,VWS V14.01,2013-02-01 04:09:00,
2013-01-31 20:14:00,37.6,36.0,30.17,SW,232,0.0,0.0,94,0.00,,OVC050,0.04,VWS V14.01,2013-02-01 04:14:00,
2013-01-31 20:19:00,37.5,35.9,30.16,SW,232,0.0,0.0,94,0.00,,OVC050,0.04,VWS V14.01,2013-02-01 04:19:00,
2013-01-31 20:24:00,37.5,35.9,30.16,SW,232,0.0,0.0,94,0.00,,OVC050,0.04,VWS V14.01,2013-02-01 04:24:00,
2013-01-31 20:29:00,37.3,35.7,30.16,SW,232,0.0,0.0,94,0.00,,OVC050,0.04,VWS V14.01,2013-02-01 04:29:00,
2013-01-31 20:34:00,37.3,35.7,30.16,SW,232,0.0,0.0,94,0.00,,OVC050,0.04,VWS V14.01,2013-02-01 04:34:00,
2013-01-31 20:40:00,37.2,35.6,30.16,SW,232,0.0,0.0,94,0.00,,OVC050,0.04,VWS V14.01,2013-02-01 04:40:00,
2013-01-31 20:45:00,37.2,35.6,30.16,SW,232,0.0,0.0,94,0.00,,OVC050,0.04,VWS V14.01,2013-02-01 04:45:00,
2013-01-31 20:50:00,37.0,35.4,30.15,SW,232,0.0,0.0,94,0.00,,OVC050,0.04,VWS V14.01,2013-02-01 04:50:00,
2013-01-31 20:55:00,37.0,35.7,30.15,SW,232,0.0,0.0,95,0.00,,OVC050,0.04,VWS V14.01,2013-02-01 04:55:00,
2013-01-31 21:00:00,37.0,35.7,30.15,SW,232,0.0,0.0,95,0.00,,OVC050,0.04,VWS V14.01,2013-02-01 05:00:00,
2013-01-31 21:01:00,37.5,36.2,30.15,SW,232,0.0,0.0,95,0.00,,BKN080,0.04,VWS V14.01,2013-02-01 05:01:00,
2013-01-31 21:03:00,37.6,36.3,30.16,SW,232,0.0,0.0,95,0.00,,BKN080,0.04,VWS V14.01,2013-02-01 05:03:00,
2013-01-31 21:08:00,37.6,36.3,30.16,SW,232,0.0,0.0,95,0.00,,BKN080,0.04,VWS V14.01,2013-02-01 05:08:00,
2013-01-31 21:13:00,37.9,36.6,30.16,SW,232,0.0,0.0,95,0.00,,BKN080,0.04,VWS V14.01,2013-02-01 05:13:00,
2013-01-31 21:18:00,37.9,36.6,30.16,SW,232,0.0,0.0,95,0.00,,BKN080,0.04,VWS V14.01,2013-02-01 05:18:00,
2013-01-31 21:23:00,38.0,36.7,30.16,SW,232,0.0,0.0,95,0.00,,BKN080,0.04,VWS V14.01,2013-02-01 05:23:00,
2013-01-31 21:28:00,38.2,36.9,30.16,SW,232,0.0,0.0,95,0.00,,BKN080,0.04,VWS V14.01,2013-02-01 05:28:00,
2013-01-31 21:33:00,38.2,36.9,30.15,SW,232,0.0,0.0,95,0.00,,BKN080,0.04,VWS V14.01,2013-02-01 05:33:00,
2013-01-31 21:39:00,38.2,36.9,30.15,SW,232,0.0,0.0,95,0.00,,BKN080,0.04,VWS V14.01,2013-02-01 05:39:00,
2013-01-31 21:44:00,38.2,36.9,30.15,SW,232,0.0,0.0,95,0.00,,BKN080,0.04,VWS V14.01,2013-02-01 05:44:00,
2013-01-31 21:49:00,38.2,36.9,30.15,SW,232,0.0,0.0,95,0.00,,BKN080,0.04,VWS V14.01,2013-02-01 05:49:00,
2013-01-31 21:54:00,38.0,36.7,30.15,SW,232,0.0,0.0,95,0.00,,BKN080,0.04,VWS V14.01,2013-02-01 05:54:00,
2013-01-31 21:59:00,37.8,36.5,30.15,SW,232,0.0,0.0,95,0.00,,BKN080,0.04,VWS V14.01,2013-02-01 05:59:00,
2013-01-31 22:04:00,37.6,36.3,30.15,SW,232,0.0,0.0,95,0.00,,OVC120,0.04,VWS V14.01,2013-02-01 06:04:00,
2013-01-31 22:09:00,37.6,36.3,30.15,SW,232,0.0,0.0,95,0.00,,OVC120,0.04,VWS V14.01,2013-02-01 06:09:00,
2013-01-31 22:14:00,37.3,36.0,30.15,SW,232,0.0,0.0,95,0.00,,OVC120,0.04,VWS V14.01,2013-02-01 06:14:00,
2013-01-31 22:19:00,37.5,36.2,30.15,SW,232,0.0,0.0,95,0.00,,OVC120,0.04,VWS V14.01,2013-02-01 06:19:00,
2013-01-31 22:25:00,37.9,36.6,30.15,SW,232,0.0,0.0,95,0.00,,OVC120,0.04,VWS V14.01,2013-02-01 06:25:00,
2013-01-31 22:30:00,38.0,36.7,30.15,SW,232,0.0,0.0,95,0.00,,OVC120,0.04,VWS V14.01,2013-02-01 06:30:00,
2013-01-31 22:35:00,37.9,36.6,30.15,SW,232,0.0,0.0,95,0.00,,OVC120,0.04,VWS V14.01,2013-02-01 06:35:00,
2013-01-31 22:40:00,37.9,36.6,30.15,SW,232,0.0,0.0,95,0.00,,OVC120,0.04,VWS V14.01,2013-02-01 06:40:00,
2013-01-31 22:45:00,37.6,36.3,30.15,SW,232,0.0,0.0,95,0.00,,OVC120,0.04,VWS V14.01,2013-02-01 06:45:00,
2013-01-31 22:50:00,37.2,35.6,30.15,SW,232,0.0,0.0,94,0.00,,OVC120,0.04,VWS V14.01,2013-02-01 06:50:00,
2013-01-31 22:55:00,36.9,35.3,30.15,SW,232,0.0,0.0,94,0.00,,OVC120,0.04,VWS V14.01,2013-02-01 06:55:00,
2013-01-31 23:01:00,36.6,35.0,30.15,SW,232,0.0,0.0,94,0.00,,OVC110,0.04,VWS V14.01,2013-02-01 07:01:00,
2013-01-31 23:06:00,36.5,34.9,30.16,SW,232,0.0,0.0,94,0.00,,OVC110,0.04,VWS V14.01,2013-02-01 07:06:00,
2013-01-31 23:11:00,36.5,34.9,30.16,SW,232,0.0,0.0,94,0.00,,OVC110,0.04,VWS V14.01,2013-02-01 07:11:00,
2013-01-31 23:16:00,37.0,36.0,30.16,SW,232,0.0,0.0,96,0.00,,OVC110,0.04,VWS V14.01,2013-02-01 07:16:00,
2013-01-31 23:21:00,37.6,36.6,30.15,SW,232,0.0,0.0,96,0.00,,OVC110,0.04,VWS V14.01,2013-02-01 07:21:00,
2013-01-31 23:26:00,38.3,37.5,30.15,SW,232,0.0,0.0,97,0.00,,OVC110,0.04,VWS V14.01,2013-02-01 07:26:00,
2013-01-31 23:31:00,38.5,37.5,30.15,SW,232,0.0,0.0,96,0.00,,OVC110,0.04,VWS V14.01,2013-02-01 07:31:00,
2013-01-31 23:36:00,38.3,37.0,30.16,SW,232,0.0,0.0,95,0.00,,OVC110,0.04,VWS V14.01,2013-02-01 07:36:00,
2013-01-31 23:41:00,38.2,36.9,30.16,SW,232,0.0,0.0,95,0.00,,OVC110,0.04,VWS V14.01,2013-02-01 07:41:00,
2013-01-31 23:46:00,38.2,36.9,30.16,SW,232,0.0,0.0,95,0.00,,OVC110,0.04,VWS V14.01,2013-02-01 07:46:00,
2013-01-31 23:51:00,38.0,36.7,30.16,SW,232,0.0,0.0,95,0.00,,OVC110,0.04,VWS V14.01,2013-02-01 07:51:00,
2013-01-31 23:57:00,37.9,36.6,30.16,SW,232,0.0,0.0,95,0.00,,OVC110,0.04,VWS V14.01,2013-02-01 07:57:00,